Voltar ao catálogo

ONEWEB-0422

AtivoComunicaçõesPO
NORAD 51626·PAYLOAD·🇬🇧 United Kingdom

Lançado Feb 10, 2022 de Guiana Space Centre

Loading…

Próximas Passagens (próximas 24 horas)

TLE

AtualizadoSource: CelesTrak SupGP

Época: Sep 14, 2026, 20:32 UTC

1 51626C 22012E   26257.85573333 -.00002863  00000+0 -73830-2 0  2576
2 51626  87.9206 348.0541 0002091  85.3371  26.9396 13.17652645    14

Acompanhe ONEWEB-0422 em tempo real com AllMySat

Download on the App Store